Change the Weather History Date:

Tuesday, March 4, 2014

  Actual Average Record
Temperature  
Mean Temperature 30 °F 51 °F  
Max Temperature 39 °F 63 °F 89 °F (1976)
Min Temperature 20 °F 39 °F 15 °F (1943)
Degree Days  
Heating Degree Days 35 14  
Month to date heating degree days 89 59  
Since 1 July heating degree days 2414 2284  
Cooling Degree Days 0 0  
Month to date cooling degree days 0 0  
Year to date cooling degree days 3 4  
Growing Degree Days 0 (Base 50)    
Moisture  
Dew Point 18 °F    
Average Humidity 64    
Maximum Humidity 81    
Minimum Humidity 47    
Precipitation  
Precipitation 0.00 in 0.10 in 1.54 in (1952)
Month to date precipitation 0.44 0.42  
Year to date precipitation 7.16 6.48  
Sea Level Pressure  
Sea Level Pressure 30.24 in    
Wind  
Wind Speed 11 mph (NNE)    
Max Wind Speed 22 mph    
Max Gust Speed 25 mph    
Visibility 10 miles    
Events      
T = Trace of Precipitation, MM = Missing Value Source: NWS Daily Summary

Daily Weather History Graph

Daily Weather History Graph

Search for Another Location

Airport or City:

Trip Planner

Search our weather history database for the weather conditions in past years. The results will help you decide how hot, cold, wet, or windy it might be!

Date:

Astronomy

Mar. 04, 2014 Rise Set
Actual Time 6:41 AM EST 6:13 PM EST
Civil Twilight 6:15 AM EST 6:39 PM EST
Nautical Twilight 5:46 AM EST 7:08 PM EST
Astronomical Twilight 5:17 AM EST 7:37 PM EST
Moon 8:35 AM EST (3/4) 10:08 PM EST (3/4)
Length of Visible Light 12h 23m
Length of Day
11h 32m
Waxing Crescent, 14% of the Moon is Illuminated
Mar 4
Waxing Crescent
Mar 8
First Quarter
Mar 16
Full
Mar 23
Last Quarter
Mar 30
New

Hourly Weather History & Observations

Time (EST) Temp. Windchill Dew Point Humidity Pressure Visibility Wind Dir Wind Speed Gust Speed Precip Events Conditions
12:06 AM 26.1 °F 13.6 °F 21.0 °F 81% 30.24 in 10.0 mi NNE 16.1 mph 25.3 mph N/A   Overcast
12:53 AM 25.0 °F 13.1 °F 19.9 °F 81% 30.25 in 10.0 mi NNE 13.8 mph - N/A   Overcast
1:53 AM 24.1 °F 10.6 °F 19.0 °F 81% 30.25 in 10.0 mi NNE 17.3 mph - N/A   Overcast
2:53 AM 21.9 °F 7.3 °F 16.0 °F 78% 30.25 in 10.0 mi North 18.4 mph - N/A   Overcast
3:12 AM 21.9 °F 9.8 °F 16.0 °F 78% 30.26 in 10.0 mi North 12.7 mph - N/A   Scattered Clouds
3:53 AM 21.0 °F 8.6 °F 14.0 °F 74% 30.26 in 10.0 mi North 12.7 mph - N/A   Clear
4:53 AM 19.9 °F 8.6 °F 14.0 °F 78% 30.27 in 10.0 mi NNE 10.4 mph - N/A   Clear
5:53 AM 19.9 °F 9.3 °F 14.0 °F 78% 30.29 in 10.0 mi NNE 9.2 mph - N/A   Clear
6:53 AM 19.9 °F 7.9 °F 12.9 °F 74% 30.28 in 10.0 mi North 11.5 mph - N/A   Clear
7:53 AM 21.9 °F 9.2 °F 15.1 °F 75% 30.30 in 10.0 mi North 13.8 mph - N/A   Clear
8:53 AM 24.1 °F 12.0 °F 16.0 °F 71% 30.32 in 10.0 mi NNE 13.8 mph - N/A   Clear
9:53 AM 28.0 °F 16.5 °F 19.0 °F 69% 30.31 in 10.0 mi NNE 15.0 mph 19.6 mph N/A   Clear
10:53 AM 30.0 °F 19.1 °F 19.9 °F 66% 30.29 in 10.0 mi NNE 15.0 mph - N/A   Clear
11:53 AM 33.1 °F 26.1 °F 19.0 °F 56% 30.28 in 10.0 mi NNE 8.1 mph - N/A   Mostly Cloudy
12:53 PM 36.0 °F 27.5 °F 19.0 °F 50% 30.24 in 10.0 mi North 12.7 mph - N/A   Overcast
1:53 PM 37.0 °F 30.4 °F 19.9 °F 50% 30.22 in 10.0 mi ENE 9.2 mph - N/A   Overcast
2:18 PM 37.9 °F 30.5 °F 19.9 °F 48% 30.22 in 10.0 mi NNE 11.5 mph 17.3 mph N/A   Overcast
2:53 PM 37.9 °F 33.5 °F 19.9 °F 48% 30.20 in 10.0 mi NE 5.8 mph - N/A   Overcast
3:53 PM 37.0 °F 30.4 °F 19.9 °F 50% 30.20 in 10.0 mi NNE 9.2 mph - N/A   Overcast
4:53 PM 37.9 °F 32.7 °F 19.9 °F 48% 30.19 in 10.0 mi NE 6.9 mph - N/A   Overcast
5:53 PM 37.9 °F 33.5 °F 21.0 °F 51% 30.20 in 10.0 mi NE 5.8 mph - N/A   Overcast
6:53 PM 37.9 °F 33.5 °F 21.0 °F 51% 30.22 in 10.0 mi NNE 5.8 mph - N/A   Overcast
7:53 PM 37.9 °F 32.1 °F 21.9 °F 53% 30.22 in 10.0 mi NNE 8.1 mph - N/A   Overcast
8:43 PM 37.0 °F 31.0 °F 19.9 °F 50% 30.21 in 10.0 mi NNE 8.1 mph - N/A   Overcast
8:53 PM 37.0 °F 29.8 °F 19.9 °F 50% 30.19 in 10.0 mi NE 10.4 mph - N/A   Overcast
9:53 PM 37.0 °F 29.3 °F 19.0 °F 48% 30.20 in 10.0 mi NNE 11.5 mph - N/A   Overcast
10:53 PM 36.0 °F 31.1 °F 18.0 °F 48% 30.21 in 10.0 mi NE 5.8 mph - N/A   Overcast
11:53 PM 36.0 °F 29.0 °F 19.0 °F 50% 30.20 in 10.0 mi NNE 9.2 mph - N/A   Overcast